Location: Killam
(52.7910°N, 111.8608°W)
Time: 22:48:17
(UTC+00:00)

Vanguard 3 - Pass Details

Date: 17 February 2026
Orbit: 507 x 3205 km, 33.4° (Epoch: 11 March)

Event Time Altitude Azimuth Distance (km) Brightness Sun altitude
Rises 00:39:03 0° 224° (SW) 4,665 12.4 -0.4°
Reaches altitude 10° 00:45:53 10° 190° (S) 2,896 10.4 -1.4°
Maximum altitude 00:47:04 10° 180° (S) 2,727 10.1 -1.6°
Drops below altitude 10° 00:48:10 10° 169° (S) 2,639 9.9 -1.7°
Sets 00:52:49 0° 129° (SE) 3,088 9.8 -2.4°
